Hors Challenge

Le Jogging Des Rocourtois - Rocourt (10.00 km)

samedi 11 septembre 2021

Vous pouvez trouver Le classement original sur : http://ultratiming.be
 
LE JOGGING DES ROCOURTOIS - ROCOURT
DISTANCE 10.00 km
samedi 11 septembre 2021
 
Place Dos NOM Equipe Catégorie Pl/cat Temps Temps/km Vitesse
01:00:00                
1 4834 TONON JULIEN RFCL HOMME 1 0:38:07 03:49 15.74
2 4848 FABRI REMY - HOMME 2 0:39:59 04:00 15.01
3 4858 DESADELEER JEAN-FRANCOIS - HOMME 3 0:40:54 04:05 14.67
4 4826 MATZ QUENTIN - HOMME 4 0:41:17 04:08 14.53
5 4809 DARDENNE NICO - HOMME 5 0:43:12 04:19 13.89
6 4853 FRANKEN MICHAEL - HOMME 6 0:43:28 04:21 13.80
7 4820 LACRIOLA JONATHAN - HOMME 7 0:43:42 04:22 13.73
8 4869 DEWÉ DAVID - HOMME 8 0:45:18 04:32 13.25
9 4849 MATON QUENTIN - HOMME 9 0:45:51 04:35 13.09
10 4803 COLARD LUCIEN - HOMME 10 0:45:53 04:35 13.08
11 4847 DEDRY CHRISTOPHE - HOMME 11 0:46:06 04:37 13.02
12 4829 PAPS CÉCILE RFCL DAME 1 0:46:17 04:38 12.96
13 4859 HAEKEN FRANCIS - HOMME 12 0:46:22 04:38 12.94
14 4816 HOOGEBOOM RONALD STB HOMME 13 0:46:30 04:39 12.90
15 4814 HELOISE GOFFIN ACCO DAME 2 0:46:33 04:39 12.89
16 4839 KIEVELOER BEATRICE - DAME 3 0:46:53 04:41 12.80
17 4850 DELCOURT SEBASTIEN - HOMME 14 0:47:14 04:43 12.70
18 4854 BOONEN KRISTOF - HOMME 15 0:47:44 04:46 12.57
19 4828 MOTTARD JULIEN - HOMME 16 0:48:12 04:49 12.45
20 4871 LANTIN DAMIEN - HOMME 17 0:48:23 04:50 12.40
21 4874 NGUYEN MINH - HOMME 18 0:48:45 04:52 12.31
22 4804 COLLETTE GRÉGORY ETHIAS RUNNING HOMME 19 0:48:47 04:53 12.30
23 4857 PISCART FRANCOISE - DAME 4 0:48:52 04:53 12.28
24 4843 HERLIN BAPTISTE - HOMME 20 0:48:54 04:53 12.27
25 4817 HUART ALAIN - HOMME 21 0:49:02 04:54 12.24
26 4824 MARTIN BENJAMIN - HOMME 22 0:49:32 04:57 12.11
27 4841 TUTS STEPHANIE - DAME 5 0:49:32 04:57 12.11
28 4842 DE KOSTER DAMIEN - HOMME 23 0:49:33 04:57 12.11
29 4812 DUERINCKX BLAISE JCPMF ROCOURT HOMME 24 0:50:02 05:00 11.99
30 4832 SMEETS RONALD - HOMME 25 0:50:04 05:00 11.98
31 4870 GOYENS JEROME - HOMME 26 0:50:23 05:02 11.91
32 4827 MAZZULLI MARC I SONS COOL HOMME 27 0:50:23 05:02 11.91
33 4818 JOVENAU CLAUDE - DAME 6 0:50:53 05:05 11.79
34 4833 SULON LAURENT - HOMME 28 0:52:37 05:16 11.40
35 4840 DOSOGNE CHRISTOPHE - HOMME 29 0:52:46 05:17 11.37
36 4835 VALETTE LAETITIA - DAME 7 0:52:58 05:18 11.33
37 4872 MARCY BRUNO - HOMME 30 0:53:10 05:19 11.29
38 4825 MATERNE CÉCILE - DAME 8 0:53:14 05:19 11.27
39 4802 BURETTE LAURENT - HOMME 31 0:53:32 05:21 11.21
40 4864 BOUCHÉ MARC - HOMME 32 0:53:36 05:22 11.19
41 4865 MICELI ROMAIN - HOMME 33 0:53:43 05:22 11.17
42 4846 LUDEWIG FRANCOIS - HOMME 34 0:54:02 05:24 11.10
43 4845 FICHEROULLE BÉNÉDICTE - DAME 9 0:54:09 05:25 11.08
44 4836 VANLINTHOUT MEGUY ESPACE VITAL DAME 10 0:54:16 05:26 11.06
45 4868 LECLERCQ SYLVIE - DAME 11 0:54:26 05:27 11.02
46 4815 HERZET LUC - HOMME 35 0:54:56 05:30 10.92
47 4851 LUCAS PIERRE - HOMME 36 0:55:47 05:35 10.76
48 4852 FRANKEN CHRISTOPHE - HOMME 37 0:55:47 05:35 10.76
49 4810 DEJONG SAMUEL - HOMME 38 0:56:21 05:38 10.65
50 4823 MAHY LARA - DAME 12 0:56:49 05:41 10.56
51 4862 HOOPT AUDE - DAME 13 0:56:50 05:41 10.56
52 4838 VILLERS CLARA - DAME 14 0:56:51 05:41 10.55
53 4821 LIBERT PHILIPPE - HOMME 39 0:58:28 05:51 10.26
54 4867 REIP OLIVIER - HOMME 40 0:59:01 05:54 10.17
55 4860 CORNET CARINE - DAME 15 0:59:03 05:54 10.16
56 4861 PARENT PASCAL - HOMME 41 0:59:05 05:54 10.16
57 4855 MARTON PRENE 0 XXX   1:00:46 06:05 9.87
58 4866 HARDY JEAN-MICHEL - HOMME 42 1:01:10 06:07 9.81
59 4813 GHAYE JEAN - HOMME 43 1:02:12 06:13 9.65
60 4876 CUIPERS CÉCILE - DAME 16 1:03:18 06:20 9.48
61 4875 CUYPERS AURORE - DAME 17 1:03:18 06:20 9.48
62 4830 PETITJEAN CATHERINE JCPMF ROCOURT DAME 18 1:03:34 06:21 9.44
63 4811 DELCOURT DOMINIQUE JCPMF ROCOURT DAME 19 1:03:34 06:21 9.44
64 4807 D'ARCONSO SABRINA TIFF FITNESS DAME 20 1:03:54 06:23 9.39
65 4806 D'ARCONSO STEPHANIE TIFF FITNESS DAME 21 1:03:55 06:23 9.39
66 4819 LACRIOLA MELANIE - DAME 22 1:04:29 06:27 9.30
67 4805 CORMAN JOEL JCPMF ROCOURT HOMME 44 1:04:41 06:28 9.28
68 4856 NARSON MYRIAM - DAME 23 1:04:42 06:28 9.27
69 4837 VERGAR FABIENNE - DAME 24 1:07:02 06:42 8.95
70 4863 ADANT FREDERIC - HOMME 45 1:07:49 06:47 8.85
71 4822 MAES SOFIE - DAME 25 1:14:10 07:25 8.09
72 4844 BOURLET JEAN-FRANCOIS - HOMME 46 1:16:52 07:41 7.81
                 
Nos dernières videos